Hourly Data Report for October 14, 2014

All times are specified in Local Standard Time (LST). Add 1 hour to adjust for Daylight Saving Time where and when it is observed.

PENTICTON A
BRITISH COLUMBIA

49°27'45.000" N
119°36'08.000" W
344.40 m
1126146
71889
YYF

Download Data

Hourly Data (October 2014)
Hourly Data Report for October 14, 2014
Temp Definition
°C
Dew Point Temp Definition
°C
Rel Hum Definition
%
Wind Dir Definition
10's deg

Wind Spd Definition
km/h
Visibility Definition
km
Stn Press Definition
kPa
Hmdx Definition


Wind Chill Definition


Weather Definition


TIME
00:00 Legend Double Dagger 17.0 3.4 40 17 18 24.1 96.04     LegendNANA
01:00 Legend Double Dagger 17.0 3.1 39 17 18 24.1 96.04     Mostly Cloudy
02:00 Legend Double Dagger 16.8 3.2 40 19 19 24.1 96.14     LegendNANA
03:00 Legend Double Dagger 15.1 6.5 56 4 12 24.1 96.38     Rain Showers
04:00 Legend Double Dagger 12.3 8.4 77 34 8 24.1 96.55     Rain Showers
05:00 Legend Double Dagger 11.5 9.1 85 36 3 24.1 96.50     LegendNANA
06:00 Legend Double Dagger 10.9 8.8 87 5 6 24.1 96.59     LegendNANA
07:00 Legend Double Dagger 10.6 8.0 84 36 8 24.1 96.68     Mostly Cloudy
08:00 Legend Double Dagger 11.0 8.9 87 6 4 24.1 96.75     LegendNANA
09:00 Legend Double Dagger 14.1 8.1 67 35 6 24.1 96.80     LegendNANA
10:00 Legend Double Dagger 15.4 7.5 59 35 9 24.1 96.79     Mostly Cloudy
11:00 Legend Double Dagger 16.9 5.0 45 36 12 24.1 96.76     LegendNANA
12:00 Legend Double Dagger 17.6 5.3 44 35 8 24.1 96.69     LegendNANA
13:00 Legend Double Dagger 18.0 4.7 41 1 11 24.1 96.61     Mostly Cloudy
14:00 Legend Double Dagger 18.1 4.4 40 34 11 24.1 96.55     LegendNANA
15:00 Legend Double Dagger 17.1 6.1 48 36 9 24.1 96.48     LegendNANA
16:00 Legend Double Dagger 16.2 6.7 53 36 7 24.1 96.45     Cloudy
17:00 Legend Double Dagger 15.3 7.7 60 31 6 24.1 96.45     LegendNANA
18:00 Legend Double Dagger 12.3 7.4 72 6 4 24.1 96.39     LegendNANA
19:00 Legend Double Dagger 10.6 6.2 74 6 7 24.1 96.43     Mostly Cloudy
20:00 Legend Double Dagger 11.2 5.3 67 2 6 24.1 96.34     LegendNANA
21:00 Legend Double Dagger 11.6 5.5 66 35 12 24.1 96.29     LegendNANA
22:00 Legend Double Dagger 11.3 6.1 70 36 1 24.1 96.24     Cloudy
23:00 Legend Double Dagger 11.1 5.5 68 36 1 24.1 96.27     LegendNANA

Notes on Data Quality.

Legend

  • E = Estimated
  • M = Missing
  • NA = Not Available
  • ‡ = Partner data that is not subject to review by the National Climate Archives
Date modified: